SCP
0 0 0 0 0 0 0 0 0 0 0 0 0 0 0 0 0 0 0 0 0 0 0 0 0 0 0 0 0 0 -0 -0
0 0 0 0 0 0 0 0 0 0 0 0 0 0 0 0 0 0 0 0 0 0 -0 -0 0 0 0 0 0 0 -0 -0
0 0 0 0 0 0 0 0 0 0 0 0 0 0 0 0 0 0 -0 -0 -0 -0 0 0 0 0 0 1 0 0 0 0
0 0 0 0 0 0 0 0 0 0 0 0 0 0 0 0 0 -0 -0 -0 -0 0 0 0 0 0 0 0 0 0 0 0
0 0 0 0 0 0 0 0 0 0 0 0 0 0 0 0 0 0 -0 -0 0 0 0 0 0 0 0 -0 0 0 0 0
0 0 0 0 0 0 0 0 0 0 0 0 0 0 0 0 0 0 0 0 0 0 0 0 0 0 0 0 0 0 1 0
0 0 0 0 0 0 0 0 0 0 0 0 0 0 0 0 0 1 1 1 0 0 0 0 0 0 0 0 -0 0 0 0
0 0 0 0 0 0 0 0 0 0 0 0 0 0 0 0 0 0 0 0 0 0 0 0 0 0 0 0 0 -0 0 0
0 0 0 0 0 0 0 0 0 0 0 0 0 0 0 0 0 0 0 0 0 0 0 0 0 0 0 0 0 -0 -0 -0
0 0 0 0 0 0 0 0 0 0 0 0 0 0 0 0 0 0 0 0 0 0 0 0 0 0 0 0 0 0 0 0
0 0 0 0 0 0 0 0 0 0 0 0 0 0 0 0 0 0 0 0 0 0 0 0 0 0 0 0 -0 0 0 0
0 0 0 0 0 0 0 0 0 0 0 0 0 0 0 0 0 0 0 0 0 0 0 0 0 0 0 0 0 0 -0 -0
0 0 0 0 0 0 0 0 0 0 0 0 0 0 0 0 0 0 0 0 0 0 0 0 0 0 0 0 0 0 0 -0
0 0 0 0 0 0 0 0 0 0 0 0 0 0 0 0 0 0 0 0 0 0 0 0 0 0 0 0 0 0 0 0
0 0 0 0 0 0 0 0 0 0 0 0 0 0 0 0 0 0 0 0 0 0 0 0 0 0 0 0 0 0 0 0
0 0 0 0 0 0 0 0 0 0 0 0 0 0 0 0 0 0 0 0 0 0 0 0 0 0 0 0 0 0 0 0
0 0 0 0 0 0 0 0 0 0 0 0 0 0 0 0 0 0 0 0 0 0 0 0 0 0 0 0 0 0 0 0
0 0 0 0 0 0 0 0 0 0 0 0 0 0 0 0 0 0 0 0 0 0 0 0 0 0 0 0 0 0 0 0
0 0 0 0 0 0 0 0 0 0 0 0 0 0 0 0 0 0 0 0 0 0 0 0 0 0 0 0 0 0 0 0
Wind_Speed_500mb
10 6 6 6 8 8 11 5 3 5 5 9 10 15 21 17 34 37 35 29 28 33 43 18 33 44 50 57 57 31 65 60
9 5 20 13 9 8 8 1 5 10 7 9 3 7 14 13 29 36 47 43 22 38 34 21 29 34 32 39 50 51 54 54
7 11 4 7 6 13 10 7 9 3 11 10 13 6 10 14 21 38 55 45 61 32 8 10 13 2 12 20 31 41 48 52
4 9 5 4 7 8 9 7 1 5 11 4 9 4 16 18 5 28 47 53 47 34 10 13 21 17 13 13 23 26 32 42
9 12 7 9 1 10 11 6 6 7 10 10 13 10 5 8 8 10 29 43 43 32 12 14 24 21 16 30 33 37 27 23
12 9 6 5 3 6 10 7 5 10 13 11 13 15 12 15 5 3 6 19 36 21 7 15 17 18 25 31 18 30 29 24
5 4 1 4 6 8 10 10 12 12 11 9 11 14 14 17 13 9 12 14 10 6 7 12 17 19 30 35 34 21 24 20
4 5 7 7 13 13 7 5 8 6 2 6 13 25 34 25 18 13 12 9 7 9 15 20 23 24 26 29 33 30 7 26
10 6 5 7 10 6 6 4 6 9 3 4 12 21 24 24 23 21 17 12 12 15 21 26 28 27 26 28 27 23 19 21
5 6 5 10 11 7 9 4 6 9 9 8 4 11 14 13 11 7 11 13 15 18 22 26 31 34 34 34 32 30 27 24
8 8 5 9 3 4 3 6 2 3 3 2 6 19 17 8 5 13 22 27 30 33 33 34 41 45 49 49 49 45 37 32
4 7 13 4 8 19 6 6 6 4 8 14 19 3 9 27 24 37 29 29 31 36 39 42 42 50 54 58 63 62 60 48
3 5 8 4 18 10 4 7 5 12 18 24 9 23 51 61 65 62 63 57 52 53 53 53 52 55 59 58 61 59 62 66
3 2 7 9 6 5 8 7 20 32 38 42 53 61 68 69 70 71 72 69 67 70 70 69 65 64 69 68 62 55 52 53
11 9 6 2 1 14 14 18 36 48 50 53 60 67 71 73 72 76 78 76 69 67 67 66 66 65 71 71 63 56 56 54
5 4 12 15 24 18 32 38 49 50 56 61 70 73 77 77 79 80 79 78 75 78 77 71 65 65 64 63 57 55 57 56
6 14 15 18 18 27 34 44 52 57 63 70 71 76 80 80 81 83 81 77 74 72 67 62 57 57 59 60 61 64 61 57
10 18 15 26 38 46 50 59 67 71 75 74 73 80 78 81 80 77 74 69 67 67 66 64 61 61 63 61 59 62 68 64
17 16 28 50 61 61 62 76 76 74 75 75 74 73 72 75 75 73 72 72 71 64 63 60 61 65 64 61 61 62 63 63
Wind_Direction_500mb
32 6 100 163 55 165 103 8 44 269 309 323 349 337 353 62 100 110 122 128 138 150 173 226 224 224 231 227 254 258 241 239
298 14 33 102 158 44 14 170 289 305 269 228 201 283 319 36 102 131 136 137 166 163 189 216 220 230 238 244 256 240 248 237
26 27 324 358 24 61 111 121 173 226 270 213 185 245 326 340 146 159 165 165 171 182 167 244 326 275 236 261 274 269 262 252
125 296 289 122 129 105 112 261 44 141 279 318 166 334 325 315 328 192 181 184 194 199 202 258 321 308 304 279 255 259 268 268
10 354 349 68 124 116 112 98 201 145 263 68 38 346 252 256 318 239 221 208 206 204 247 302 326 337 314 301 252 260 281 303
194 212 160 171 204 94 113 113 191 231 278 344 348 283 217 216 211 291 265 242 232 236 291 3 13 16 11 350 268 256 247 299
208 219 238 234 222 184 182 186 168 242 213 304 317 274 228 151 129 97 63 65 98 120 29 28 41 39 33 20 12 257 257 257
289 193 196 254 237 248 245 121 278 271 197 328 23 101 96 93 103 74 43 36 27 2 1 2 1 9 21 30 24 30 251 256
240 15 5 306 254 199 148 98 193 201 182 47 29 53 65 69 70 61 45 25 356 356 354 2 359 357 357 6 11 8 6 352
194 42 236 257 332 167 113 75 104 98 96 96 148 105 79 77 58 22 348 343 337 325 325 333 330 329 329 334 339 340 338 334
152 185 305 307 322 27 357 252 107 65 12 67 2 213 236 192 243 272 276 281 283 293 293 293 303 305 307 310 313 317 324 322
131 163 211 232 305 352 140 270 13 357 333 337 347 261 247 225 278 298 287 280 286 291 292 293 292 292 295 295 297 302 308 313
147 196 285 274 299 313 161 236 349 341 313 314 275 272 295 298 296 297 297 292 287 285 283 282 283 287 287 290 291 293 290 293
100 94 268 330 359 41 212 208 311 316 311 301 302 302 302 302 299 297 295 290 286 281 278 276 276 278 278 280 283 282 280 283
169 217 233 230 249 285 232 297 321 315 311 308 304 301 301 299 301 300 295 290 287 282 282 279 272 266 272 276 282 286 280 278
41 253 231 253 300 292 265 274 301 296 298 300 294 295 294 295 295 301 298 293 294 287 286 284 279 262 266 275 280 280 276 273
274 281 287 279 283 309 298 292 298 304 299 299 298 297 295 295 296 296 297 294 294 287 280 282 281 273 266 270 275 275 271 271
233 256 233 268 307 311 305 306 310 306 305 301 299 297 297 293 293 295 294 297 296 289 283 281 279 282 275 273 275 277 266 266
267 289 278 295 305 312 309 311 311 308 303 295 300 299 298 293 293 294 290 288 288 291 289 284 280 280 277 275 277 273 267 263
Wind_Speed_850mb
10 6 6 6 8 8 11 5 3 5 5 9 10 15 21 17 34 37 35 29 28 33 43 18 33 44 50 57 57 31 65 60
9 5 20 13 9 8 8 1 5 10 7 9 3 7 14 13 29 36 47 43 22 38 34 21 29 34 32 39 50 51 54 54
7 11 4 7 6 13 10 7 9 3 11 10 13 6 10 14 21 38 55 45 61 32 8 10 13 2 12 20 31 41 48 52
4 9 5 4 7 8 9 7 1 5 11 4 9 4 16 18 5 28 47 53 47 34 10 13 21 17 13 13 23 26 32 42
9 12 7 9 1 10 11 6 6 7 10 10 13 10 5 8 8 10 29 43 43 32 12 14 24 21 16 30 33 37 27 23
12 9 6 5 3 6 10 7 5 10 13 11 13 15 12 15 5 3 6 19 36 21 7 15 17 18 25 31 18 30 29 24
5 4 1 4 6 8 10 10 12 12 11 9 11 14 14 17 13 9 12 14 10 6 7 12 17 19 30 35 34 21 24 20
4 5 7 7 13 13 7 5 8 6 2 6 13 25 34 25 18 13 12 9 7 9 15 20 23 24 26 29 33 30 7 26
10 6 5 7 10 6 6 4 6 9 3 4 12 21 24 24 23 21 17 12 12 15 21 26 28 27 26 28 27 23 19 21
5 6 5 10 11 7 9 4 6 9 9 8 4 11 14 13 11 7 11 13 15 18 22 26 31 34 34 34 32 30 27 24
8 8 5 9 3 4 3 6 2 3 3 2 6 19 17 8 5 13 22 27 30 33 33 34 41 45 49 49 49 45 37 32
4 7 13 4 8 19 6 6 6 4 8 14 19 3 9 27 24 37 29 29 31 36 39 42 42 50 54 58 63 62 60 48
3 5 8 4 18 10 4 7 5 12 18 24 9 23 51 61 65 62 63 57 52 53 53 53 52 55 59 58 61 59 62 66
3 2 7 9 6 5 8 7 20 32 38 42 53 61 68 69 70 71 72 69 67 70 70 69 65 64 69 68 62 55 52 53
11 9 6 2 1 14 14 18 36 48 50 53 60 67 71 73 72 76 78 76 69 67 67 66 66 65 71 71 63 56 56 54
5 4 12 15 24 18 32 38 49 50 56 61 70 73 77 77 79 80 79 78 75 78 77 71 65 65 64 63 57 55 57 56
6 14 15 18 18 27 34 44 52 57 63 70 71 76 80 80 81 83 81 77 74 72 67 62 57 57 59 60 61 64 61 57
10 18 15 26 38 46 50 59 67 71 75 74 73 80 78 81 80 77 74 69 67 67 66 64 61 61 63 61 59 62 68 64
17 16 28 50 61 61 62 76 76 74 75 75 74 73 72 75 75 73 72 72 71 64 63 60 61 65 64 61 61 62 63 63
Wind_Direction_850mb
32 6 100 163 55 165 103 8 44 269 309 323 349 337 353 62 100 110 122 128 138 150 173 226 224 224 231 227 254 258 241 239
298 14 33 102 158 44 14 170 289 305 269 228 201 283 319 36 102 131 136 137 166 163 189 216 220 230 238 244 256 240 248 237
26 27 324 358 24 61 111 121 173 226 270 213 185 245 326 340 146 159 165 165 171 182 167 244 326 275 236 261 274 269 262 252
125 296 289 122 129 105 112 261 44 141 279 318 166 334 325 315 328 192 181 184 194 199 202 258 321 308 304 279 255 259 268 268
10 354 349 68 124 116 112 98 201 145 263 68 38 346 252 256 318 239 221 208 206 204 247 302 326 337 314 301 252 260 281 303
194 212 160 171 204 94 113 113 191 231 278 344 348 283 217 216 211 291 265 242 232 236 291 3 13 16 11 350 268 256 247 299
208 219 238 234 222 184 182 186 168 242 213 304 317 274 228 151 129 97 63 65 98 120 29 28 41 39 33 20 12 257 257 257
289 193 196 254 237 248 245 121 278 271 197 328 23 101 96 93 103 74 43 36 27 2 1 2 1 9 21 30 24 30 251 256
240 15 5 306 254 199 148 98 193 201 182 47 29 53 65 69 70 61 45 25 356 356 354 2 359 357 357 6 11 8 6 352
194 42 236 257 332 167 113 75 104 98 96 96 148 105 79 77 58 22 348 343 337 325 325 333 330 329 329 334 339 340 338 334
152 185 305 307 322 27 357 252 107 65 12 67 2 213 236 192 243 272 276 281 283 293 293 293 303 305 307 310 313 317 324 322
131 163 211 232 305 352 140 270 13 357 333 337 347 261 247 225 278 298 287 280 286 291 292 293 292 292 295 295 297 302 308 313
147 196 285 274 299 313 161 236 349 341 313 314 275 272 295 298 296 297 297 292 287 285 283 282 283 287 287 290 291 293 290 293
100 94 268 330 359 41 212 208 311 316 311 301 302 302 302 302 299 297 295 290 286 281 278 276 276 278 278 280 283 282 280 283
169 217 233 230 249 285 232 297 321 315 311 308 304 301 301 299 301 300 295 290 287 282 282 279 272 266 272 276 282 286 280 278
41 253 231 253 300 292 265 274 301 296 298 300 294 295 294 295 295 301 298 293 294 287 286 284 279 262 266 275 280 280 276 273
274 281 287 279 283 309 298 292 298 304 299 299 298 297 295 295 296 296 297 294 294 287 280 282 281 273 266 270 275 275 271 271
233 256 233 268 307 311 305 306 310 306 305 301 299 297 297 293 293 295 294 297 296 289 283 281 279 282 275 273 275 277 266 266
267 289 278 295 305 312 309 311 311 308 303 295 300 299 298 293 293 294 290 288 288 291 289 284 280 280 277 275 277 273 267 263